Regional Weather Roundup
Issued by NWS

Home | Current Version | Previous Version | Text Only | Print | Product List | Glossary Off
Versions: 1 2 3 4 5 6 7 8 9 10 11 12 13 14 15 16 17 18 19 20 21 22 23 24 25 26 27 28 29 30 31 32 33 34 35 36 37 38 39 40 41 42 43 44 45 46 47 48 49 50

000
ASUS43 KFSD 010210
RWRSD

WEATHER ROUNDUP FOR SOUTH DAKOTA
NATIONAL WEATHER SERVICE SIOUX FALLS SD
900 PM CDT FRI SEP 30 2016

NOTE: "FAIR" INDICATES FEW OR NO CLOUDS BELOW 12,000 FEET WITH NO
SIGNIFICANT WEATHER AND/OR OBSTRUCTIONS TO VISIBILITY.


SDZ001>005-009-010-012>017-010300-
NORTHWEST AND NORTH CENTRAL SOUTH DAKOTA

CITY           SKY/WX    TMP DP  RH WIND       PRES   REMARKS
BUFFALO          N/A     63  47  55 E9        29.95S
FAITH            N/A     66  47  50 SE20      29.99F
MOBRIDGE       CLOUDY    66  43  43 SE16      30.04F
$$

SDZ012>016-024>037-041>051-057-063-072>074-010300-
SOUTHWEST AND SOUTH CENTRAL SOUTH DAKOTA

CITY           SKY/WX    TMP DP  RH WIND       PRES   REMARKS
RAPID CTY ARPT PTCLDY    67  52  58 S8        30.01S
PIERRE         PTCLDY    64  45  49 SE15      30.06S
CUSTER         CLOUDY    59  45  59 CALM      30.14F
ELLSWORTH AFB  CLOUDY    69  52  55 S8        30.00S
PHILIP         PTCLDY    66  48  52 E5        30.01S
PINE RIDGE     MOCLDY    68  47  46 S14G23    30.05F
WINNER         FAIR      62  48  60 SE10      30.10F
$$

SDZ004>011-016>023-039-040-010300-
NORTHEAST SOUTH DAKOTA

CITY           SKY/WX    TMP DP  RH WIND       PRES   REMARKS
ABERDEEN       PTCLDY    54  43  66 SE6       30.14F
WATERTOWN      PTCLDY    60  45  57 SE7       30.18S
BROOKINGS      PTCLDY    58  45  62 E8        30.18S
SISSETON         N/A     54  46  74 S3        30.18S
$$

SDZ017-020-022-023-036>040-048>070-010300-
SOUTHEAST SOUTH DAKOTA

CITY           SKY/WX    TMP DP  RH WIND       PRES   REMARKS
SIOUX FALLS    CLOUDY    56  48  74 CALM      30.17S
HURON          PTCLDY    59  46  62 SE8       30.14S
CHAMBERLAIN    MOCLDY    58  46  64 SE7       30.12S
MITCHELL       PTCLDY    59  46  62 SE7       30.14F
YANKTON        PTCLDY    63  46  55 E3        30.14R
$$

ABBREVIATIONS USED IN REMARKS
   TC - TEMPERATURE IN CELSIUS
  WCI - WIND CHILL INDEX
   HX - HEAT INDEX
  VSB - VISIBILITY





USA.gov is the U.S. government's official web portal to all federal, state and local government web resources and services.